Time,TemperatureF,DewpointF,PressureIn,WindDirection,WindDirectionDegrees,WindSpeedMPH,WindSpeedGustMPH,Humidity,HourlyPrecipIn,Conditions,Clouds,dailyrainin,SoftwareType,DateUTC
2013-02-13 00:00:00,33.1,24.4,29.97,WNW,293,0.4,0.7,70,0.00,,,0.36,WUHU216HW,2013-02-13 05:00:00,
2013-02-13 00:08:00,32.8,23.7,29.97,West,270,0.4,0.4,69,0.00,,,0.00,WUHU216HW,2013-02-13 05:08:00,
2013-02-13 00:10:00,32.8,23.7,29.96,West,270,0.0,0.4,69,0.00,,,0.00,WUHU216HW,2013-02-13 05:10:00,
2013-02-13 00:19:00,32.8,24.0,29.97,SW,225,0.0,0.4,70,0.00,,,0.00,WUHU216HW,2013-02-13 05:19:00,
2013-02-13 00:30:00,31.9,22.9,29.97,SSE,158,0.4,0.7,69,0.00,,,0.00,WUHU216HW,2013-02-13 05:30:00,
2013-02-13 00:40:00,31.1,22.5,29.97,South,180,0.7,0.7,70,0.00,,,0.00,WUHU216HW,2013-02-13 05:40:00,
2013-02-13 00:50:00,30.6,22.0,29.97,NNW,338,0.2,1.6,70,0.00,,,0.00,WUHU216HW,2013-02-13 05:50:00,
2013-02-13 01:00:00,30.2,21.6,29.97,NNW,338,0.0,0.4,70,0.00,,,0.00,WUHU216HW,2013-02-13 06:00:00,
2013-02-13 01:10:00,29.7,21.4,29.98,SSE,158,0.0,0.4,71,0.00,,,0.00,WUHU216HW,2013-02-13 06:10:00,
2013-02-13 01:20:00,29.3,21.1,29.98,SSE,158,0.0,0.0,71,0.00,,,0.00,WUHU216HW,2013-02-13 06:20:00,
2013-02-13 01:30:00,29.0,21.1,29.99,SSE,158,0.0,0.0,72,0.00,,,0.00,WUHU216HW,2013-02-13 06:30:00,
2013-02-13 01:40:00,28.4,20.6,29.99,SSE,158,0.0,0.0,72,0.00,,,0.00,WUHU216HW,2013-02-13 06:40:00,
2013-02-13 01:50:00,28.3,20.4,29.99,SSE,158,0.0,0.0,72,0.00,,,0.00,WUHU216HW,2013-02-13 06:50:00,
2013-02-13 02:00:00,27.7,20.2,29.99,SSE,158,0.0,0.0,73,0.00,,,0.00,WUHU216HW,2013-02-13 07:00:00,
2013-02-13 02:10:00,27.5,20.0,29.99,SSE,158,0.0,0.0,73,0.00,,,0.00,WUHU216HW,2013-02-13 07:10:00,
2013-02-13 02:20:00,27.2,20.0,29.98,SSE,158,0.4,0.4,74,0.00,,,0.00,WUHU216HW,2013-02-13 07:20:00,
2013-02-13 02:30:00,27.0,19.8,29.99,SSE,158,0.0,0.7,74,0.00,,,0.00,WUHU216HW,2013-02-13 07:30:00,
2013-02-13 02:40:00,27.0,19.8,29.98,North,0,0.0,0.2,74,0.00,,,0.00,WUHU216HW,2013-02-13 07:40:00,
2013-02-13 02:50:00,26.8,19.6,29.97,North,0,0.0,0.0,74,0.00,,,0.00,WUHU216HW,2013-02-13 07:50:00,
2013-02-13 03:00:00,26.3,19.4,29.97,SSE,158,0.2,0.4,75,0.00,,,0.00,WUHU216HW,2013-02-13 08:00:00,
2013-02-13 03:10:00,26.3,19.4,29.97,SSE,158,0.0,0.0,75,0.00,,,0.00,WUHU216HW,2013-02-13 08:10:00,
2013-02-13 03:20:00,25.9,19.0,29.97,SSE,158,0.0,0.4,75,0.00,,,0.00,WUHU216HW,2013-02-13 08:20:00,
2013-02-13 03:30:00,25.7,19.2,29.97,SSE,158,0.0,0.2,76,0.00,,,0.00,WUHU216HW,2013-02-13 08:30:00,
2013-02-13 03:40:00,25.6,19.0,29.96,SSE,158,0.0,0.0,76,0.00,,,0.00,WUHU216HW,2013-02-13 08:40:00,
2013-02-13 03:50:00,25.4,18.8,29.95,SSE,158,0.4,0.4,76,0.00,,,0.00,WUHU216HW,2013-02-13 08:50:00,
2013-02-13 04:00:00,25.0,18.8,29.95,SSE,158,0.0,0.4,77,0.00,,,0.00,WUHU216HW,2013-02-13 09:00:00,
2013-02-13 04:10:00,24.8,18.6,29.95,SSE,158,0.0,0.0,77,0.00,,,0.00,WUHU216HW,2013-02-13 09:10:00,
2013-02-13 04:20:00,24.8,18.6,29.94,SSE,158,0.0,0.0,77,0.00,,,0.00,WUHU216HW,2013-02-13 09:20:00,
2013-02-13 04:30:00,24.7,18.5,29.93,SSE,158,0.4,0.4,77,0.00,,,0.00,WUHU216HW,2013-02-13 09:30:00,
2013-02-13 04:40:00,24.5,18.6,29.93,North,0,0.0,0.7,78,0.00,,,0.00,WUHU216HW,2013-02-13 09:40:00,
2013-02-13 04:50:00,24.1,18.3,29.93,North,0,0.0,0.2,78,0.00,,,0.00,WUHU216HW,2013-02-13 09:50:00,
2013-02-13 05:00:00,24.1,18.5,29.93,North,0,0.0,0.0,79,0.00,,,0.00,WUHU216HW,2013-02-13 10:00:00,
2013-02-13 05:11:00,23.9,18.4,29.93,North,0,0.0,0.0,79,0.00,,,0.00,WUHU216HW,2013-02-13 10:11:00,
2013-02-13 05:21:00,23.8,17.9,29.93,North,0,0.0,0.0,78,0.00,,,0.00,WUHU216HW,2013-02-13 10:21:00,
2013-02-13 05:31:00,23.6,17.7,29.93,North,0,0.0,0.0,78,0.00,,,0.00,WUHU216HW,2013-02-13 10:31:00,
2013-02-13 05:41:00,23.4,17.6,29.94,North,0,0.0,0.0,78,0.00,,,0.00,WUHU216HW,2013-02-13 10:41:00,
2013-02-13 05:51:00,23.2,17.4,29.94,North,0,0.0,0.0,78,0.00,,,0.00,WUHU216HW,2013-02-13 10:51:00,
2013-02-13 06:01:00,23.0,17.2,29.94,North,0,0.0,0.0,78,0.00,,,0.00,WUHU216HW,2013-02-13 11:01:00,
2013-02-13 06:11:00,22.9,17.0,29.93,North,0,0.0,0.0,78,0.00,,,0.00,WUHU216HW,2013-02-13 11:11:00,
2013-02-13 06:21:00,22.7,17.2,29.94,South,180,0.0,0.4,79,0.00,,,0.00,WUHU216HW,2013-02-13 11:21:00,
2013-02-13 06:31:00,22.7,17.2,29.94,South,180,0.0,0.0,79,0.00,,,0.00,WUHU216HW,2013-02-13 11:31:00,
2013-02-13 06:41:00,22.7,17.2,29.94,South,180,0.0,0.0,79,0.00,,,0.00,WUHU216HW,2013-02-13 11:41:00,
2013-02-13 06:51:00,22.7,17.5,29.94,South,180,0.0,0.0,80,0.00,,,0.00,WUHU216HW,2013-02-13 11:51:00,
2013-02-13 07:01:00,22.7,17.5,29.94,South,180,0.0,0.0,80,0.00,,,0.00,WUHU216HW,2013-02-13 12:01:00,
2013-02-13 07:11:00,22.7,17.5,29.94,South,180,0.0,0.0,80,0.00,,,0.00,WUHU216HW,2013-02-13 12:11:00,
2013-02-13 07:21:00,22.7,17.5,29.94,SSE,158,0.0,0.4,80,0.00,,,0.00,WUHU216HW,2013-02-13 12:21:00,
2013-02-13 07:31:00,22.7,17.7,29.94,SSE,158,0.0,0.0,81,0.00,,,0.00,WUHU216HW,2013-02-13 12:31:00,
2013-02-13 07:41:00,23.0,18.1,29.94,South,180,0.0,0.2,81,0.00,,,0.00,WUHU216HW,2013-02-13 12:41:00,
2013-02-13 07:51:00,23.2,18.3,29.94,South,180,0.0,0.0,81,0.00,,,0.00,WUHU216HW,2013-02-13 12:51:00,
2013-02-13 08:01:00,23.8,19.1,29.93,South,180,0.0,0.0,82,0.00,,,0.00,WUHU216HW,2013-02-13 13:01:00,
2013-02-13 08:11:00,24.3,19.6,29.93,South,180,0.0,0.0,82,0.00,,,0.00,WUHU216HW,2013-02-13 13:11:00,
2013-02-13 08:21:00,25.6,20.8,29.93,SSE,158,0.0,0.0,82,0.00,,,0.00,WUHU216HW,2013-02-13 13:21:00,
2013-02-13 08:31:00,26.6,22.4,29.93,North,0,0.0,0.4,84,0.00,,,0.00,WUHU216HW,2013-02-13 13:31:00,
2013-02-13 08:41:00,28.1,23.9,29.93,North,0,0.0,0.2,84,0.00,,,0.00,WUHU216HW,2013-02-13 13:41:00,
2013-02-13 08:51:00,30.2,26.0,29.93,NNE,23,1.1,1.1,84,0.00,,,0.00,WUHU216HW,2013-02-13 13:51:00,
2013-02-13 09:01:00,32.6,27.1,29.91,NNE,23,0.4,2.9,80,0.00,,,0.00,WUHU216HW,2013-02-13 14:01:00,
2013-02-13 09:11:00,34.6,27.4,29.91,NNW,338,0.0,1.8,75,0.00,,,0.00,WUHU216HW,2013-02-13 14:11:00,
2013-02-13 09:21:00,36.9,29.1,29.91,North,0,1.1,2.9,73,0.00,,,0.00,WUHU216HW,2013-02-13 14:21:00,
2013-02-13 09:31:00,38.0,29.8,29.91,South,180,0.4,1.1,72,0.00,,,0.00,WUHU216HW,2013-02-13 14:31:00,
2013-02-13 09:41:00,40.0,31.6,29.91,ENE,68,0.0,1.8,72,0.00,,,0.00,WUHU216HW,2013-02-13 14:41:00,
2013-02-13 09:51:00,42.3,33.3,29.91,ESE,113,1.3,1.8,70,0.00,,,0.00,WUHU216HW,2013-02-13 14:51:00,
2013-02-13 10:01:00,44.3,34.7,29.90,South,180,1.1,1.8,69,0.00,,,0.00,WUHU216HW,2013-02-13 15:01:00,
2013-02-13 10:11:00,46.8,36.5,29.90,South,180,1.6,1.8,67,0.00,,,0.00,WUHU216HW,2013-02-13 15:11:00,
2013-02-13 10:21:00,47.9,36.6,29.90,South,180,1.8,2.0,65,0.00,,,0.00,WUHU216HW,2013-02-13 15:21:00,
2013-02-13 10:31:00,48.8,36.0,29.90,East,90,0.4,3.6,61,0.00,,,0.00,WUHU216HW,2013-02-13 15:31:00,
2013-02-13 10:41:00,49.5,35.8,29.91,SSW,203,1.6,2.7,59,0.00,,,0.00,WUHU216HW,2013-02-13 15:41:00,
2013-02-13 10:51:00,50.6,36.7,29.92,SSE,158,0.9,2.5,59,0.00,,,0.00,WUHU216HW,2013-02-13 15:51:00,
2013-02-13 11:01:00,48.6,33.6,29.93,SSE,158,2.0,3.6,56,0.00,,,0.00,WUHU216HW,2013-02-13 16:01:00,
2013-02-13 11:11:00,47.3,33.3,29.92,SE,135,1.8,2.5,58,0.00,,,0.00,WUHU216HW,2013-02-13 16:11:00,
2013-02-13 11:21:00,46.1,30.2,29.92,South,180,2.2,3.8,54,0.00,,,0.00,WUHU216HW,2013-02-13 16:21:00,
2013-02-13 11:31:00,45.4,31.0,29.91,ESE,113,0.4,2.5,57,0.00,,,0.00,WUHU216HW,2013-02-13 16:31:00,
2013-02-13 11:41:00,44.6,28.5,29.91,SSW,203,1.3,3.1,53,0.00,,,0.00,WUHU216HW,2013-02-13 16:41:00,
2013-02-13 11:51:00,44.6,30.3,29.90,SSE,158,1.6,2.2,57,0.00,,,0.00,WUHU216HW,2013-02-13 16:51:00,
2013-02-13 12:01:00,44.8,29.6,29.89,WSW,248,0.4,2.5,55,0.00,,,0.00,WUHU216HW,2013-02-13 17:01:00,
2013-02-13 12:11:00,43.9,29.2,29.88,SE,135,0.4,2.2,56,0.00,,,0.00,WUHU216HW,2013-02-13 17:11:00,
2013-02-13 12:21:00,45.5,30.7,29.88,SE,135,0.7,2.5,56,0.00,,,0.00,WUHU216HW,2013-02-13 17:21:00,
2013-02-13 12:31:00,47.5,32.6,29.86,South,180,2.5,2.9,56,0.00,,,0.00,WUHU216HW,2013-02-13 17:31:00,
2013-02-13 12:41:00,49.3,34.2,29.86,SW,225,0.4,3.1,56,0.00,,,0.00,WUHU216HW,2013-02-13 17:41:00,
2013-02-13 12:51:00,47.9,32.0,29.85,SSW,203,0.9,2.5,54,0.00,,,0.00,WUHU216HW,2013-02-13 17:51:00,
2013-02-13 13:01:00,48.1,32.1,29.84,South,180,2.5,2.5,54,0.00,,,0.00,WUHU216HW,2013-02-13 18:01:00,
2013-02-13 13:11:00,46.1,28.4,29.82,NE,45,0.0,4.7,50,0.00,,,0.00,WUHU216HW,2013-02-13 18:11:00,
2013-02-13 13:21:00,45.0,29.4,29.81,SSW,203,1.3,2.7,54,0.00,,,0.00,WUHU216HW,2013-02-13 18:21:00,
2013-02-13 13:31:00,45.9,30.2,29.81,ESE,113,0.4,2.7,54,0.00,,,0.00,WUHU216HW,2013-02-13 18:31:00,
2013-02-13 13:41:00,46.4,30.2,29.80,WSW,248,0.0,3.1,53,0.00,,,0.00,WUHU216HW,2013-02-13 18:41:00,
2013-02-13 13:51:00,45.7,30.0,29.80,WSW,248,0.7,0.9,54,0.00,,,0.00,WUHU216HW,2013-02-13 18:51:00,
2013-02-13 14:01:00,44.5,27.9,29.80,SE,135,3.1,3.4,52,0.00,,,0.00,WUHU216HW,2013-02-13 19:01:00,
2013-02-13 14:11:00,45.9,30.2,29.80,SSE,158,2.0,2.0,54,0.00,,,0.00,WUHU216HW,2013-02-13 19:11:00,
2013-02-13 14:21:00,47.2,31.3,29.80,SSW,203,0.9,1.3,54,0.00,,,0.00,WUHU216HW,2013-02-13 19:21:00,
2013-02-13 14:31:00,47.9,31.5,29.79,SSE,158,0.7,1.8,53,0.00,,,0.00,WUHU216HW,2013-02-13 19:31:00,
2013-02-13 14:41:00,46.6,30.3,29.79,South,180,1.1,3.1,53,0.00,,,0.00,WUHU216HW,2013-02-13 19:41:00,
2013-02-13 14:51:00,46.1,30.2,29.79,SE,135,1.3,1.8,54,0.00,,,0.00,WUHU216HW,2013-02-13 19:51:00,
2013-02-13 15:01:00,45.5,29.8,29.79,ESE,113,0.4,1.8,54,0.00,,,0.00,WUHU216HW,2013-02-13 20:01:00,
2013-02-13 15:11:00,44.8,28.7,29.79,SSW,203,0.4,1.3,53,0.00,,,0.00,WUHU216HW,2013-02-13 20:11:00,
2013-02-13 15:21:00,44.3,28.6,29.78,East,90,0.7,1.8,54,0.00,,,0.00,WUHU216HW,2013-02-13 20:21:00,
2013-02-13 15:26:00,43.9,28.3,29.78,ESE,113,1.8,1.8,54,0.00,,,0.00,WUHU216HW,2013-02-13 20:26:00,
2013-02-13 15:31:00,43.6,28.0,29.78,SE,135,0.7,2.5,54,0.00,,,0.00,WUHU216HW,2013-02-13 20:31:00,
2013-02-13 15:36:00,43.2,27.6,29.78,East,90,0.0,2.5,54,0.00,,,0.00,WUHU216HW,2013-02-13 20:36:00,
2013-02-13 15:41:00,43.0,27.9,29.78,ESE,113,0.9,2.0,55,0.00,,,0.00,WUHU216HW,2013-02-13 20:41:00,
2013-02-13 15:51:00,42.5,27.4,29.78,SSE,158,0.7,2.5,55,0.00,,,0.00,WUHU216HW,2013-02-13 20:51:00,
2013-02-13 15:56:00,42.1,27.5,29.78,South,180,0.2,2.2,56,0.00,,,0.00,WUHU216HW,2013-02-13 20:56:00,
2013-02-13 16:06:00,41.9,27.3,29.78,SSE,158,0.7,2.0,56,0.00,,,0.00,WUHU216HW,2013-02-13 21:06:00,
2013-02-13 16:16:00,41.8,27.2,29.78,SE,135,0.4,1.6,56,0.00,,,0.00,WUHU216HW,2013-02-13 21:16:00,
2013-02-13 16:27:00,41.4,27.3,29.77,SSE,158,0.4,0.9,57,0.00,,,0.00,WUHU216HW,2013-02-13 21:27:00,
2013-02-13 16:37:00,41.2,27.1,29.76,SE,135,0.0,1.1,57,0.00,,,0.00,WUHU216HW,2013-02-13 21:37:00,
2013-02-13 16:47:00,41.0,26.9,29.75,ESE,113,0.0,0.4,57,0.00,,,0.00,WUHU216HW,2013-02-13 21:47:00,
2013-02-13 16:57:00,40.7,27.0,29.75,SE,135,0.0,0.9,58,0.00,,,0.00,WUHU216HW,2013-02-13 21:57:00,
2013-02-13 17:07:00,40.3,26.6,29.74,SE,135,0.0,0.0,58,0.00,,,0.00,WUHU216HW,2013-02-13 22:07:00,
2013-02-13 17:17:00,40.0,26.7,29.74,NNE,23,0.0,0.7,59,0.00,,,0.00,WUHU216HW,2013-02-13 22:17:00,
2013-02-13 17:27:00,39.4,26.2,29.75,NNE,23,0.0,0.0,59,0.00,,,0.00,WUHU216HW,2013-02-13 22:27:00,
2013-02-13 17:37:00,39.1,26.3,29.73,NNE,23,0.0,0.0,60,0.00,,,0.00,WUHU216HW,2013-02-13 22:37:00,
2013-02-13 17:47:00,38.5,26.2,29.73,NNE,23,0.0,0.0,61,0.00,,,0.00,WUHU216HW,2013-02-13 22:47:00,
2013-02-13 17:57:00,38.2,26.3,29.73,ENE,68,0.7,0.7,62,0.00,,,0.00,WUHU216HW,2013-02-13 22:57:00,
2013-02-13 18:07:00,38.0,26.5,29.73,ENE,68,0.0,0.9,63,0.00,,,0.00,WUHU216HW,2013-02-13 23:07:00,
2013-02-13 18:17:00,37.6,25.7,29.72,NNE,23,0.0,1.1,62,0.00,,,0.00,WUHU216HW,2013-02-13 23:17:00,
2013-02-13 18:27:00,37.3,25.8,29.72,NNE,23,0.0,0.2,63,0.00,,,0.00,WUHU216HW,2013-02-13 23:27:00,
2013-02-13 18:37:00,37.1,25.7,29.74,SSW,203,0.0,0.7,63,0.00,,,0.00,WUHU216HW,2013-02-13 23:37:00,
2013-02-13 18:47:00,37.3,26.2,29.74,SSW,203,0.0,0.2,64,0.00,,,0.00,WUHU216HW,2013-02-13 23:47:00,
2013-02-13 18:57:00,37.1,26.0,29.74,SSW,203,0.0,0.0,64,0.00,,,0.00,WUHU216HW,2013-02-13 23:57:00,
2013-02-13 19:08:00,36.7,26.0,29.75,South,180,0.4,0.4,65,0.00,,,0.00,WUHU216HW,2013-02-14 00:08:00,
2013-02-13 19:18:00,36.5,26.3,29.75,South,180,0.0,0.2,66,0.00,,,0.00,WUHU216HW,2013-02-14 00:18:00,
2013-02-13 19:28:00,36.5,26.3,29.74,South,180,0.0,0.0,66,0.00,,,0.00,WUHU216HW,2013-02-14 00:28:00,
2013-02-13 19:38:00,36.4,26.5,29.74,South,180,0.0,0.0,67,0.00,,,0.00,WUHU216HW,2013-02-14 00:38:00,
2013-02-13 19:48:00,36.4,26.5,29.74,SSE,158,0.2,0.2,67,0.00,,,0.00,WUHU216HW,2013-02-14 00:48:00,
2013-02-13 19:58:00,36.2,26.7,29.74,SSE,158,0.0,0.4,68,0.00,,,0.00,WUHU216HW,2013-02-14 00:58:00,
2013-02-13 20:08:00,36.2,28.0,29.75,NNW,338,0.0,0.2,72,0.00,,,0.00,WUHU216HW,2013-02-14 01:08:00,
2013-02-13 20:18:00,36.0,27.8,29.75,NNW,338,0.2,0.7,72,0.00,,,0.00,WUHU216HW,2013-02-14 01:18:00,
2013-02-13 20:28:00,35.8,29.0,29.76,West,270,0.0,1.3,76,0.00,,,0.00,WUHU216HW,2013-02-14 01:28:00,
2013-02-13 20:38:00,35.3,28.1,29.75,NW,315,0.0,0.2,75,0.00,,,0.00,WUHU216HW,2013-02-14 01:38:00,
2013-02-13 20:48:00,34.9,27.7,29.75,NW,315,0.0,0.0,75,0.00,,,0.00,WUHU216HW,2013-02-14 01:48:00,
2013-02-13 20:59:00,34.9,27.7,29.76,NW,315,0.0,0.0,75,0.00,,,0.00,WUHU216HW,2013-02-14 01:59:00,
2013-02-13 21:09:00,34.7,27.5,29.75,SSW,203,0.2,0.2,75,0.00,,,0.00,WUHU216HW,2013-02-14 02:09:00,
2013-02-13 21:19:00,34.6,27.7,29.75,SSW,203,0.0,0.4,76,0.00,,,0.00,WUHU216HW,2013-02-14 02:19:00,
2013-02-13 21:29:00,34.6,27.7,29.75,SSW,203,0.0,0.0,76,0.00,,,0.00,WUHU216HW,2013-02-14 02:29:00,
2013-02-13 21:39:00,34.2,28.0,29.75,SSW,203,0.0,0.0,78,0.00,,,0.00,WUHU216HW,2013-02-14 02:39:00,
2013-02-13 21:49:00,34.2,28.0,29.75,SSW,203,0.0,0.0,78,0.00,,,0.00,WUHU216HW,2013-02-14 02:49:00,
2013-02-13 21:59:00,34.2,28.0,29.75,SSW,203,0.0,0.0,78,0.00,,,0.00,WUHU216HW,2013-02-14 02:59:00,
2013-02-13 22:09:00,34.0,27.8,29.74,SSW,203,0.0,0.0,78,0.00,,,0.00,WUHU216HW,2013-02-14 03:09:00,
2013-02-13 22:19:00,34.0,28.1,29.74,SSW,203,0.0,0.0,79,0.00,,,0.00,WUHU216HW,2013-02-14 03:19:00,
2013-02-13 22:29:00,34.0,28.4,29.74,South,180,0.9,0.9,80,0.00,,,0.00,WUHU216HW,2013-02-14 03:29:00,
2013-02-13 22:39:00,34.0,28.4,29.74,South,180,0.2,0.9,80,0.00,,,0.00,WUHU216HW,2013-02-14 03:39:00,
2013-02-13 22:49:00,34.0,28.4,29.74,South,180,0.0,0.4,80,0.00,,,0.00,WUHU216HW,2013-02-14 03:49:00,
2013-02-13 22:59:00,34.0,28.7,29.74,South,180,0.0,0.4,81,0.00,,,0.00,WUHU216HW,2013-02-14 03:59:00,
2013-02-13 23:10:00,34.0,28.7,29.74,South,180,0.0,0.4,81,0.00,,,0.00,WUHU216HW,2013-02-14 04:10:00,
2013-02-13 23:20:00,34.0,28.7,29.74,South,180,0.0,0.0,81,0.00,,,0.00,WUHU216HW,2013-02-14 04:20:00,
2013-02-13 23:30:00,33.8,28.8,29.75,South,180,0.0,0.0,82,0.00,,,0.00,WUHU216HW,2013-02-14 04:30:00,
2013-02-13 23:40:00,33.8,28.5,29.75,South,180,0.0,0.0,81,0.00,,,0.00,WUHU216HW,2013-02-14 04:40:00,
2013-02-13 23:50:00,33.8,28.5,29.75,South,180,0.0,0.0,81,0.00,,,0.00,WUHU216HW,2013-02-14 04:50:00,